ATLAS CENTAUR 2 1 00694U 63047A 25355.49282416 .00001802 00000+0 21024-3 0 9997 2 00694 30.3531 272.5653 0548776 111.2809 254.7270 14.11796721120565 THOR AGENA D R/B 1 00733U 64002A 25355.51420676 .00000173 00000+0 78976-4 0 9997 2 00733 99.1217 359.6074 0033703 125.1341 235.3008 14.33964513227091 SL-3 R/B 1 00877U 64053B 25355.60624457 .00000128 00000+0 49308-4 0 9992 2 00877 65.0748 200.1429 0074594 317.4411 42.0922 14.61282253255388 SL-8 R/B 1 02802U 67045B 25355.51278468 .00000357 00000+0 10649-3 0 9992 2 02802 74.0104 134.0808 0063854 161.2607 199.0923 14.45545713 77728 SL-8 R/B 1 03230U 68040B 25355.36254972 .00002896 00000+0 21920-3 0 9995 2 03230 74.0314 113.6603 0025941 313.7136 46.1903 15.02581325 78240 OAO 2 1 03597U 68110A 25355.27369920 .00000206 00000+0 60603-4 0 9994 2 03597 34.9949 343.0191 0006069 286.3283 73.6740 14.47249092 7734 ISIS 1 1 03669U 69009A 25355.46858345 .00000185 00000+0 13415-3 0 9991 2 03669 88.4489 163.8414 1706966 247.0554 94.1857 11.30358098339698 SERT 2 1 04327U 70009A 25355.50775883 .00000023 00000+0 87832-4 0 9991 2 04327 99.2664 297.9194 0005163 14.6007 103.2195 13.58718923769277 SL-3 R/B 1 05118U 71028B 25355.55759237 .00029421 00000+0 43514-3 0 9993 2 05118 81.2375 148.0670 0019233 208.8296 151.1893 15.54926568976508 ASTEX 1 1 05560U 71089A 25355.39635983 .00000474 00000+0 12082-3 0 9997 2 05560 92.7147 126.4202 0015281 357.5843 2.5287 14.50652145850951 SL-8 R/B 1 05730U 71119B 25355.32617334 .00010640 00000+0 55386-3 0 9993 2 05730 73.8890 321.9879 0558778 304.5298 50.4292 14.35929635644230 OAO 3 (COPERNICUS) 1 06153U 72065A 25355.51756204 .00000305 00000+0 67004-4 0 9993 2 06153 35.0070 22.6634 0007154 243.0707 273.2162 14.59913430834765 ATLAS CENTAUR R/B 1 06155U 72065B 25355.51259054 .00000948 00000+0 13333-3 0 9994 2 06155 35.0024 43.8076 0033246 72.3066 288.1261 14.77430644829695 SL-8 R/B 1 08459U 75112B 25355.52580625 .00000300 00000+0 10733-3 0 9994 2 08459 74.0590 162.6968 0016679 273.1448 86.7798 14.38151197620631 SL-3 R/B 1 10114U 77057B 25355.51065381 .00010630 00000+0 24191-3 0 9991 2 10114 97.5684 159.1815 0007033 197.3625 162.7383 15.43140673656263 SEASAT 1 1 10967U 78064A 25355.60608226 .00000229 00000+0 10275-3 0 9998 2 10967 108.0133 321.6359 0001411 253.8296 106.2695 14.46070068495229 SL-14 R/B 1 11267U 79011B 25355.57497389 .00000488 00000+0 45816-4 0 9994 2 11267 82.5233 170.6645 0015148 322.9524 37.0649 14.91779558517139 SL-8 R/B 1 11574U 79089B 25355.36786646 .00000221 00000+0 74996-4 0 9990 2 11574 74.0681 236.0105 0014633 66.7711 293.4984 14.42288988424810 SL-14 R/B 1 11672U 80005B 25355.53675900 .00000466 00000+0 44693-4 0 9990 2 11672 82.5141 21.3558 0017247 66.7568 293.5465 14.90801025464843 SL-8 R/B 1 12139U 81003B 25355.50151136 .00013214 00000+0 34931-3 0 9993 2 12139 82.9319 2.1399 0278437 90.1383 273.1751 15.07273392302885 SL-3 R/B 1 12465U 81046B 25355.53284017 .00008656 00000+0 21662-3 0 9991 2 12465 81.2319 23.4175 0018279 292.3979 67.5325 15.39772341426398 SL-3 R/B 1 12904U 81103B 25355.54543851 .00005486 00000+0 25074-3 0 9997 2 12904 81.1601 305.0395 0012406 181.1793 178.9411 15.20327706961351 SL-3 R/B 1 13068U 82013B 25355.58968926 .00003847 00000+0 17022-3 0 9991 2 13068 81.1749 252.2507 0024162 82.5516 277.8459 15.21157308392475 SL-3 R/B 1 13154U 82039B 25355.58782620 .00002252 00000+0 13749-3 0 9991 2 13154 81.1715 305.9172 0029421 222.2077 137.6884 15.09571187369858 SL-3 R/B 1 13403U 82079B 25355.54674634 .00005200 00000+0 21348-3 0 9993 2 13403 81.1480 285.2789 0027031 70.8072 289.6083 15.23682820365796 SL-14 R/B 1 13553U 82092B 25355.62415074 .00000385 00000+0 40497-4 0 9990 2 13553 82.5674 214.4030 0019840 196.2267 178.0251 14.86563416317335 SL-3 R/B 1 13819U 83010B 25355.26414832 .00011244 00000+0 24754-3 0 9990 2 13819 81.1051 98.2128 0016725 320.8822 39.1211 15.43669610345837 SL-3 R/B 1 14208U 83075B 25355.58076268 .00008329 00000+0 23565-3 0 9995 2 14208 97.6101 352.3617 0023677 144.6452 215.6367 15.36298381318153 COSMOS 1536 1 14699U 84013A 25355.61290453 .00005531 00000+0 23598-3 0 9998 2 14699 82.5440 185.3636 0014212 192.4532 167.6355 15.22612844260738 SL-14 R/B 1 14820U 84027B 25355.37732028 .00000432 00000+0 46692-4 0 9997 2 14820 82.5418 318.4555 0016678 229.6398 130.3363 14.85882928236008 SL-8 R/B 1 15483U 85006B 25355.52716806 .00000221 00000+0 82010-4 0 9994 2 15483 74.0462 44.9676 0019071 335.3110 129.4220 14.37726006142795 SL-12 R/B(2) 1 15772U 85042D 25355.19754968 .00000103 00000+0 67835-4 0 9996 2 15772 71.1075 253.5524 0037398 249.0699 223.0424 14.21954342103231 SL-14 R/B 1 15945U 85069B 25355.25131435 .00000457 00000+0 48892-4 0 9996 2 15945 82.5273 98.7015 0020358 92.3472 268.0075 14.86333680161185 SL-16 R/B 1 16182U 85097B 25355.17270385 -.00000041 00000+0 33765-5 0 9994 2 16182 71.0038 305.8491 0007249 357.1699 14.0367 14.16587826 76115 SL-14 R/B 1 16496U 86006B 25355.44976644 .00000480 00000+0 48291-4 0 9999 2 16496 82.5267 333.3551 0076926 170.8510 189.4131 14.86681945137586 COSMOS 1743 1 16719U 86034A 25355.42088658 .00026202 00000+0 42484-3 0 9992 2 16719 82.5344 155.5716 0004927 215.9623 144.1299 15.52605056168080 SL-14 R/B 1 16792U 86046B 25355.53865967 .00000448 00000+0 48866-4 0 9999 2 16792 82.4816 154.0042 0024366 124.3468 236.0059 14.85493582114809 SL-14 R/B 1 16882U 86055B 25355.53683140 .00000400 00000+0 43393-4 0 9998 2 16882 82.5197 200.1065 0017752 227.9232 194.5487 14.85538664107761 AJISAI (EGS) 1 16908U 86061A 25355.58532505 -.00000099 00000+0 -91611-5 0 9990 2 16908 50.0113 333.5178 0011317 88.0765 19.4107 12.44514358458278 COSMOS 1812 1 17295U 87003A 25355.23677560 .00093520 00000+0 56918-3 0 9998 2 17295 82.4877 282.8068 0006665 73.3700 286.8297 15.77128069131990 SL-14 R/B 1 17567U 87024B 25355.53307081 .00000426 00000+0 45831-4 0 9990 2 17567 82.5275 166.1937 0018849 155.3925 204.8195 14.86032193 76526 COSMOS 1833 1 17589U 87027A 25355.63745358 .00000221 00000+0 14401-3 0 9992 2 17589 70.9153 130.0725 0022901 319.2738 40.6670 14.13025864999286 SL-16 R/B 1 17590U 87027B 25355.48442406 .00000156 00000+0 10092-3 0 9994 2 17590 71.0038 81.2921 0007258 250.4647 109.5694 14.17155698 4269 SL-14 R/B 1 17912U 87038B 25355.48785011 .00000372 00000+0 40390-4 0 9991 2 17912 82.5011 10.4607 0020756 65.2318 295.1055 14.85268559 67623 COSMOS 1844 1 17973U 87041A 25355.61363698 .00000265 00000+0 16268-3 0 9997 2 17973 70.8964 198.8544 0029782 143.0366 217.2816 14.14528866992544 SL-14 R/B 1 18153U 87055B 25355.47818619 .00000417 00000+0 45348-4 0 9996 2 18153 82.4994 62.7532 0019168 272.2826 87.6195 14.85529404 58321 COSMOS 1867 1 18187U 87060A 25355.54524479 -.00000039 00000+0 23124-4 0 9994 2 18187 65.0086 165.5432 0013685 271.9124 88.0393 14.31487410 8751 SL-14 R/B 1 18749U 88001B 25355.19892656 .00000424 00000+0 46208-4 0 9995 2 18749 82.5136 269.1914 0019152 134.2887 225.9904 14.85432168 30375 COSMOS 1933 1 18958U 88020A 25355.32708280 .00003561 00000+0 17778-3 0 9996 2 18958 82.5136 328.3930 0006229 105.2197 254.9725 15.17175337 38342 SL-3 R/B 1 19046U 88032B 25355.55824079 .00004243 00000+0 20517-3 0 9991 2 19046 97.5087 334.2179 0027641 142.8961 217.4192 15.18821963 40248 SL-16 R/B 1 19120U 88039B 25355.13216648 .00000183 00000+0 10925-3 0 9993 2 19120 71.0133 234.6537 0019573 101.8926 258.4396 14.19598422947239 COSMOS 1953 1 19210U 88050A 25351.75027580 .00004793 00000+0 17925-3 0 9993 2 19210 82.5093 240.5536 0013540 56.0210 304.2313 15.26995692 25270 SL-8 R/B 1 19257U 88053B 25355.46139459 .00000217 00000+0 78744-4 0 9992 2 19257 74.0472 256.6458 0018986 97.4020 76.0210 14.38864130965341 COSMOS 1975 1 19573U 88093A 25355.63012779 .00005445 00000+0 20639-3 0 9998 2 19573 82.5189 195.9277 0013031 84.7337 275.5388 15.26585052 7497 SL-14 R/B 1 19574U 88093B 25355.58934310 .00000435 00000+0 47460-4 0 9993 2 19574 82.5315 115.3628 0019358 298.5744 71.8047 14.85557887989442 SL-16 R/B 1 19650U 88102B 25355.35855157 .00000258 00000+0 15440-3 0 9990 2 19650 71.0003 316.3079 0012567 137.0882 223.1224 14.16140198915807 INTERCOSMOS 24 1 20261U 89080A 25355.40384482 .00000606 00000+0 16911-3 0 9991 2 20261 82.6051 155.3199 1188987 114.4300 258.5408 12.59453426656946 SL-14 R/B 1 20262U 89080C 25355.14485728 .00000285 00000+0 81602-4 0 9991 2 20262 82.5919 223.6253 1230518 4.3821 356.6933 12.50419812650334 DELTA 1 R/B 1 20323U 89089B 25355.60706860 .00000270 00000+0 75732-4 0 9993 2 20323 97.0745 210.4389 0069429 10.5696 349.6942 14.50578739884419 ARIANE 40 R/B 1 20443U 90005H 25355.14803992 .00000206 00000+0 78990-4 0 9997 2 20443 98.3232 53.0881 0011272 83.1050 277.1421 14.39804243881501 DELTA 2 R/B(1) 1 20453U 90008B 25355.27723001 .00036697 00000+0 57446-3 0 9992 2 20453 35.6080 325.3743 0110989 256.0139 102.8231 15.45866140913953 COSMOS 2058 1 20465U 90010A 25355.36973334 .00004127 00000+0 24836-3 0 9994 2 20465 82.4701 124.5422 0009076 238.7091 121.3251 15.10549799930415 SL-14 R/B 1 20466U 90010B 25355.44662967 .00000385 00000+0 43783-4 0 9996 2 20466 82.5020 340.8691 0019369 193.2345 166.8365 14.83478775916884 SL-14 R/B 1 20511U 90018B 25355.59173153 .00000430 00000+0 51155-4 0 9998 2 20511 82.5217 296.0911 0016228 354.8140 5.2903 14.82055192911016 HST 1 20580U 90037B 25355.28223008 .00005080 00000+0 17197-3 0 9999 2 20580 28.4660 214.3403 0002157 343.7140 16.3385 15.28154679761308 SL-16 R/B 1 20625U 90046B 25355.58246262 -.00000253 00000+0 -10620-3 0 9992 2 20625 70.9993 101.9517 0012065 57.7297 302.4993 14.14998449837347 COSMOS 2084 1 20663U 90055A 25355.40471710 .00002033 00000+0 15527-3 0 9990 2 20663 62.7895 242.4678 0030308 175.8572 184.2785 15.05066080924537 SL-6 R/B(2) 1 20666U 90055D 25355.54894650 .00001659 00000+0 13672-3 0 9992 2 20666 62.7811 159.4823 0013670 314.8470 45.1517 15.03110965926442 SL-8 R/B 1 20775U 90078B 25355.41677743 .00014313 00000+0 44234-3 0 9995 2 20775 82.9055 321.5402 0370635 276.6895 79.2279 14.86247068797663 SL-8 R/B 1 21088U 91006B 25355.61318383 .00000119 00000+0 10421-3 0 9999 2 21088 82.9418 228.1127 0021196 253.4229 171.0834 13.77491699753322 OKEAN-3 1 21397U 91039A 25355.59647884 .00002117 00000+0 15033-3 0 9990 2 21397 82.5173 52.4754 0013527 232.1029 127.8975 15.04172614853291 COSMOS 2151 1 21422U 91042A 25355.56390442 .00001467 00000+0 11657-3 0 9990 2 21422 82.4963 158.9992 0011830 329.0326 31.0199 14.99717390851485 SL-14 R/B 1 21423U 91042B 25355.29076256 .00000363 00000+0 42936-4 0 9994 2 21423 82.4934 293.7047 0018133 134.8306 225.4386 14.81746063841460 ERS-1 1 21574U 91050A 25355.56528606 .00000238 00000+0 90980-4 0 9994 2 21574 98.7900 6.8407 0032988 74.5939 285.8889 14.39370952804492 ARIANE 40 R/B 1 21610U 91050F 25355.59384942 .00000263 00000+0 91350-4 0 9991 2 21610 98.2153 45.7045 0002248 329.5220 30.5840 14.42820000807730 INTERCOSMOS 25 1 21819U 91086A 25355.46937637 .00001924 00000+0 38324-3 0 9998 2 21819 82.6071 357.2949 1486368 285.5749 58.6511 12.11760081487217 SL-8 R/B 1 21876U 92008B 25355.41548042 .00000106 00000+0 93894-4 0 9994 2 21876 82.9269 325.9929 0034634 355.7550 115.0680 13.75960855698655 SL-8 R/B 1 21938U 92020B 25355.64303652 .00000129 00000+0 11783-3 0 9999 2 21938 82.9296 211.7062 0029478 153.4772 269.9472 13.75529289690408 USA 81 1 21949U 92023A 25355.48704969 .00000165 00000+0 53588-4 0 9992 2 21949 85.0079 176.5311 0001128 79.4022 280.7298 14.32329917 83598 COSMOS 2219 1 22219U 92076A 25354.85964826 .00000211 00000+0 13552-3 0 9999 2 22219 71.0573 182.8582 0019234 315.8435 44.1151 14.14064805707231 SL-16 R/B 1 22220U 92076B 25355.48203130 .00000227 00000+0 13697-3 0 9992 2 22220 71.0007 353.1159 0014349 222.2615 251.7583 14.16843984710752 COSMOS 2221 1 22236U 92080A 25355.51441990 .00001582 00000+0 13914-3 0 9993 2 22236 82.5038 353.9261 0016282 94.6718 265.6364 14.95791351769106 SL-16 R/B 1 22285U 92093B 25355.57795774 .00000064 00000+0 57187-4 0 9994 2 22285 71.0204 168.2425 0002396 42.0300 318.1007 14.15434865702103 COSMOS 2228 1 22286U 92094A 25355.44808935 .00001825 00000+0 15690-3 0 9994 2 22286 82.5183 312.2017 0017161 200.2114 159.8431 14.96766224764354 SL-16 R/B 1 22566U 93016B 25355.53991986 .00000319 00000+0 18817-3 0 9990 2 22566 71.0080 19.3207 0008026 80.2394 279.9635 14.15290168691119 COSMOS 2242 1 22626U 93024A 25355.46407910 .00001654 00000+0 14439-3 0 9996 2 22626 82.5186 341.5053 0015537 202.8193 157.2340 14.96138900768696 SL-16 R/B 1 22803U 93059B 25355.20196804 .00000142 00000+0 94208-4 0 9994 2 22803 70.9879 176.6412 0018397 323.7537 36.2339 14.17213652668415 ARIANE 40 R/B 1 22830U 93061H 25355.41726668 .00000206 00000+0 91260-4 0 9993 2 22830 98.5065 60.7890 0011349 151.2382 208.9430 14.32806728682890 COSMOS 2278 1 23087U 94023A 25355.37654278 -.00000123 00000+0 -39757-4 0 9992 2 23087 71.0534 338.9407 0007915 164.3785 195.7584 14.14348144633737 SL-16 R/B 1 23088U 94023B 25355.10520453 -.00000232 00000+0 -95425-4 0 9996 2 23088 70.9988 235.9187 0001857 7.9271 352.1881 14.15001225634974 SL-16 R/B 1 23343U 94074B 25355.61340913 .00000379 00000+0 57589-4 0 9992 2 23343 97.7191 24.5650 0007974 111.4408 2.5313 14.79299050675704 SL-16 R/B 1 23405U 94077B 25355.54146569 -.00000085 00000+0 -19022-4 0 9993 2 23405 70.9819 156.8970 0004969 278.2684 81.7875 14.15552901605179 ARIANE 40+ R/B 1 23561U 95021B 25355.48379279 .00000253 00000+0 94739-4 0 9998 2 23561 98.4640 62.9669 0007044 25.7789 345.2089 14.39701620607996 SL-16 R/B 1 23705U 95058B 25355.33258338 -.00000252 00000+0 -10445-3 0 9996 2 23705 71.0220 344.7637 0014834 244.1580 115.8014 14.15482555556768 SL-16 R/B 1 24298U 96051B 25355.41220722 -.00000047 00000+0 15294-5 0 9993 2 24298 70.7595 340.9265 0019480 250.7405 109.1608 14.12397302510591 ORBVIEW 2 (SEASTAR) 1 24883U 97037A 25355.34969070 .00000215 00000+0 91055-4 0 9990 2 24883 98.8461 152.6411 0001329 305.9563 54.1498 14.35422800497234 SL-16 R/B 1 25400U 98043G 25355.35846172 .00000035 00000+0 33484-4 0 9994 2 25400 98.8139 303.2252 0008877 238.7543 121.2767 14.26027370427821 SL-16 R/B 1 25407U 98045B 25355.38204716 .00000209 00000+0 12956-3 0 9991 2 25407 71.0116 346.2516 0006460 162.4088 197.7260 14.16175669416018 ISS (ZARYA) 1 25544U 98067A 25355.56954477 .00009066 00000+0 16837-3 0 9995 2 25544 51.6324 98.7522 0003165 281.5679 78.4955 15.49703708544228 CZ-4B R/B 1 25732U 99025C 25355.06778979 .00000049 00000+0 44639-4 0 9999 2 25732 98.6755 36.1612 0036642 209.6182 179.7199 14.18245565377022 OKEAN-O 1 25860U 99039A 25355.44249373 .00000624 00000+0 89060-4 0 9995 2 25860 97.9590 51.0685 0001015 112.0419 248.0901 14.80175613422819 SL-16 R/B 1 25861U 99039B 25355.15908419 .00000412 00000+0 59203-4 0 9998 2 25861 98.0114 49.3105 0015561 148.0584 212.1575 14.81597378425239 DELTA 2 R/B 1 25876U 99041E 25355.13993418 .00000588 00000+0 13483-3 0 9991 2 25876 51.7609 254.9130 0504528 116.5231 248.8336 14.11421328351937 HELIOS 1B 1 25977U 99064A 25355.28036649 .00001393 00000+0 16079-3 0 9997 2 25977 98.1757 250.1993 0001203 32.9309 327.1981 14.87312710673607 TERRA 1 25994U 99068A 25355.58997148 .00000384 00000+0 87571-4 0 9998 2 25994 97.9735 46.9492 0003512 76.8406 91.6789 14.60911086383670 SL-16 R/B 1 26070U 00006B 25355.44775779 -.00000077 00000+0 -14753-4 0 9990 2 26070 71.0018 262.3482 0018585 296.8330 63.0892 14.15808352337489 TITAN 4B R/B 1 26474U 00047B 25355.55972670 .00002653 00000+0 17386-3 0 9998 2 26474 67.9896 260.0835 0038284 133.9622 226.4696 15.08839594381127 ENVISAT 1 27386U 02009A 25352.94754304 .00000081 00000+0 39999-4 0 9991 2 27386 98.3609 303.5309 0001126 84.8976 298.2993 14.39001403247569 IDEFIX & ARIANE 42P R/B 1 27422U 02021B 25355.39359311 .00000226 00000+0 10258-3 0 9994 2 27422 98.5799 289.9725 0012845 60.3454 299.9007 14.30956032232826 AQUA 1 27424U 02022A 25354.90603153 .00000615 00000+0 13306-3 0 9998 2 27424 98.4047 315.9181 0001418 110.6839 325.0971 14.61819722257229 CZ-4B R/B 1 27432U 02024C 25355.57148182 .00000048 00000+0 47892-4 0 9997 2 27432 98.8986 44.3120 0049279 244.3474 244.8697 14.14529547218194 MIDORI II (ADEOS-II) 1 27597U 02056A 25355.32645804 .00000194 00000+0 94191-4 0 9996 2 27597 98.7650 308.3283 0000630 149.9768 210.1450 14.29210918199107 H-2A R/B 1 27601U 02056E 25355.48386774 .00000303 00000+0 12062-3 0 9995 2 27601 98.3078 313.8928 0071088 35.4396 74.9771 14.33683164202908 CZ-4B R/B 1 28059U 03049C 25355.53609898 .00000330 00000+0 87255-4 0 9994 2 28059 98.6793 342.4325 0049334 109.7282 250.9245 14.54917185175233 CZ-2C R/B 1 28222U 04012C 25355.61506600 .00033169 00000+0 47214-3 0 9999 2 28222 97.7404 48.9729 0016561 235.5992 124.3697 15.56129394192102 SL-16 R/B 1 28353U 04021B 25355.53142257 -.00000012 00000+0 18646-4 0 9999 2 28353 71.0005 36.5158 0004819 185.4426 174.6645 14.14578762111782 CZ-4B R/B 1 28415U 04035C 25355.60192293 .00006385 00000+0 23667-3 0 9992 2 28415 97.3591 25.8279 0031613 244.4586 115.3383 15.27503268167980 CZ-2C R/B 1 28480U 04046B 25355.51352181 .00000193 00000+0 86761-4 0 9996 2 28480 98.1996 270.3462 0140085 26.5075 334.3184 14.26945320 97359 ARIANE 5 R/B 1 28499U 04049H 25355.41196337 .00000955 00000+0 11245-3 0 9997 2 28499 98.2526 156.0045 0083380 244.4443 114.8134 14.85031989134170 CZ-2D R/B 1 28738U 05024B 25355.48248630 .00025381 00000+0 39829-3 0 9996 2 28738 97.3622 3.1611 0004039 333.0811 27.0232 15.53656468127618 ALOS (DAICHI) 1 28931U 06002A 25351.73419158 .00001110 00000+0 19545-3 0 9994 2 28931 98.1098 303.1864 0001361 113.5739 246.5610 14.69501788 61443 H-2A R/B 1 28932U 06002B 25355.37357290 .00007811 00000+0 41001-3 0 9993 2 28932 98.2325 130.8285 0054834 147.0977 213.3686 15.14730511 82570 RESURS-DK 1 1 29228U 06021A 25355.56195782 .00002006 00000+0 12205-3 0 9995 2 29228 69.9338 79.0386 0006864 251.3709 108.6712 15.12205310 75712 CZ-4B R/B 1 29507U 06046C 25355.54829215 .00003822 00000+0 20004-3 0 9998 2 29507 97.5717 35.6628 0034023 175.7561 184.3966 15.15951116 48201 CZ-2C R/B 1 31114U 07010B 25355.59573121 .00000105 00000+0 67045-4 0 9992 2 31114 98.3976 107.8009 0059489 160.2757 200.0740 14.20213140968635 COSMO-SKYMED 1 1 31598U 07023A 25355.55145667 .00002913 00000+0 26617-3 0 9996 2 31598 97.8838 181.0087 0001526 81.8232 278.3162 14.95829297 3226 COSMOS 2428 1 31792U 07029A 25355.44649512 .00000170 00000+0 11709-3 0 9993 2 31792 70.9365 7.5989 0004165 11.2158 348.9055 14.12893036953048 SL-16 R/B 1 31793U 07029B 25355.38817089 .00000238 00000+0 14789-3 0 9999 2 31793 70.9758 336.9774 0001903 262.4859 259.4601 14.14816722954291 KORONAS-FOTON 1 33504U 09003A 25355.45411842 .00008063 00000+0 19179-3 0 9992 2 33504 82.4306 357.0742 0013403 81.3597 278.9168 15.41358600933685 CZ-2C R/B 1 37731U 11030B 25355.38781991 .00001092 00000+0 14501-3 0 9997 2 37731 97.8427 309.3036 0051393 244.6425 231.7549 14.80926794778500 H-2A R/B 1 38341U 12025E 25355.47764037 .00002110 00000+0 19812-3 0 9994 2 38341 98.4609 311.3818 0044346 207.1579 152.7319 14.94495494736539 SHIJIAN-16 (SJ-16) 1 39358U 13057A 25355.58760561 .00001314 00000+0 13213-3 0 9993 2 39358 74.9730 332.9125 0017903 299.1663 60.7733 14.92007225659852 SL-4 R/B 1 39679U 14021B 25355.26455914 .00008295 00000+0 20115-3 0 9993 2 39679 51.6090 359.1584 0100978 176.9614 183.2003 15.36857317644200 ALOS-2 1 39766U 14029A 25355.60295552 .00001500 00000+0 20773-3 0 9998 2 39766 97.9232 90.3234 0001391 97.2593 262.8777 14.79472363625328 YAOGAN-29 1 41038U 15069A 25355.59163193 .00000116 00000+0 20993-4 0 9998 2 41038 98.0207 18.7917 0000552 171.5156 188.6067 14.82891427544303 ASTRO-H (HITOMI) 1 41337U 16012A 25354.62576161 .00002365 00000+0 13855-3 0 9991 2 41337 30.9979 146.5292 0009722 257.8770 102.0779 15.09397922540273 HXMT (HUIYAN) 1 42758U 17034A 25355.61797346 .00004964 00000+0 26044-3 0 9995 2 42758 43.0146 90.3577 0031056 101.7307 258.7028 15.16330095470681 CZ-2C R/B 1 43521U 18054D 25354.46782726 .00085209 00000+0 52783-3 0 9995 2 43521 35.1325 128.4252 0015100 222.0230 137.9345 15.75638299416275 SAOCOM 1A 1 43641U 18076A 25353.89549035 .00000993 00000+0 13119-3 0 9999 2 43641 97.8839 178.2129 0001511 80.1993 279.9391 14.82168152389549 H-2A R/B 1 43682U 18084L 25355.54336167 .00015766 00000+0 42383-3 0 9996 2 43682 98.8764 191.4491 0026757 295.6454 64.2023 15.37663477393751 SAOCOM 1B 1 46265U 20059A 25355.61454877 .00000779 00000+0 10444-3 0 9999 2 46265 97.8833 179.0071 0001435 88.6287 271.5090 14.82147065287188 CSS (TIANHE) 1 48274U 21035A 25355.55290883 .00016128 00000+0 20086-3 0 9992 2 48274 41.4687 323.1886 0007788 108.2472 251.9215 15.59533817265401 COSMOS 2550 1 48865U 21056A 25353.89888216 .00000080 00000+0 82513-5 0 9994 2 48865 67.1455 282.2793 0008368 269.6426 90.3770 15.33838622251223 CZ-2C R/B 1 52794U 22058K 25355.38846286 .00019930 00000+0 35569-3 0 9991 2 52794 50.1912 359.4287 0044908 234.2569 125.4219 15.48893242197974 CZ-2C R/B 1 54039U 22132E 25355.55088840 .00027173 00000+0 39727-3 0 9999 2 54039 97.2938 351.9207 0021721 27.5157 332.7243 15.55316530178204 GSLV R/B 1 54149U 22138AN 25355.55058853 .00001960 00000+0 17058-3 0 9997 2 54149 87.3823 192.5229 0024124 76.7935 283.5986 14.96170580172244 XRISM 1 57800U 23137A 25355.35934583 .00004010 00000+0 23236-3 0 9999 2 57800 31.0028 69.8892 0007680 331.7046 28.3174 15.10412996125936 ACS3 1 59588U 24077B 25355.49094490 .00019999 00000+0 17023-1 0 9994 2 59588 97.2626 309.1413 0075735 316.8715 42.6529 13.85868840 83356 SZ-21 MODULE 1 66515U 25246C 25355.10297298 .00021377 00000+0 23274-3 0 9990 2 66515 41.4772 325.0132 0005392 304.7401 55.2931 15.62895195 5757